TimeEDT,TemperatureF,Dew PointF,Humidity,Sea Level PressureIn,VisibilityMPH,Wind Direction,Wind SpeedMPH,Gust SpeedMPH,PrecipitationIn,Events,Conditions,WindDirDegrees,DateUTC
12:19 AM,64.4,62.6,94,29.80,1.5,Calm,Calm,-,N/A,,Clear,0,2013-07-24 04:19:00
12:35 AM,66.2,62.6,88,29.81,3.0,Calm,Calm,-,N/A,,Scattered Clouds,0,2013-07-24 04:35:00
12:53 AM,64.9,62.1,90,29.81,8.0,Calm,Calm,-,N/A,,Partly Cloudy,0,2013-07-24 04:53:00
1:34 AM,66.2,64.4,94,29.82,7.0,Calm,Calm,-,N/A,,Overcast,0,2013-07-24 05:34:00
1:53 AM,66.9,64.0,90,29.81,10.0,Calm,Calm,-,N/A,,Overcast,0,2013-07-24 05:53:00
2:49 AM,66.2,60.8,83,29.83,10.0,North,9.2,16.1,N/A,,Overcast,10,2013-07-24 06:49:00
2:53 AM,66.9,61.0,81,29.81,10.0,NNE,8.1,-,N/A,,Overcast,20,2013-07-24 06:53:00
3:53 AM,66.0,59.0,78,29.81,10.0,Variable,5.8,-,N/A,,Overcast,0,2013-07-24 07:53:00
4:53 AM,64.9,57.9,78,29.83,10.0,NNE,5.8,-,N/A,,Overcast,20,2013-07-24 08:53:00
5:53 AM,63.0,57.0,81,29.86,10.0,NE,3.5,-,N/A,,Scattered Clouds,50,2013-07-24 09:53:00
6:53 AM,62.1,57.0,84,29.89,10.0,NNW,3.5,-,N/A,,Mostly Cloudy,340,2013-07-24 10:53:00
7:53 AM,64.9,55.9,73,29.90,10.0,North,3.5,-,N/A,,Clear,10,2013-07-24 11:53:00
8:53 AM,64.9,55.0,70,29.93,10.0,NNE,9.2,-,N/A,,Mostly Cloudy,20,2013-07-24 12:53:00
9:53 AM,68.0,55.9,65,29.94,10.0,North,6.9,-,N/A,,Overcast,350,2013-07-24 13:53:00
10:53 AM,68.0,55.0,63,29.94,10.0,North,9.2,-,N/A,,Overcast,350,2013-07-24 14:53:00
11:53 AM,68.0,55.9,65,29.95,10.0,North,4.6,-,N/A,,Overcast,360,2013-07-24 15:53:00
12:53 PM,70.0,55.0,59,29.96,10.0,North,9.2,-,N/A,,Overcast,10,2013-07-24 16:53:00
1:53 PM,72.0,57.0,59,29.96,10.0,NNE,8.1,-,N/A,,Mostly Cloudy,20,2013-07-24 17:53:00
2:53 PM,72.0,54.0,53,29.95,10.0,Variable,3.5,-,N/A,,Mostly Cloudy,0,2013-07-24 18:53:00
3:53 PM,70.0,54.0,57,29.97,10.0,NNE,5.8,-,N/A,,Mostly Cloudy,20,2013-07-24 19:53:00
4:53 PM,71.1,53.1,53,29.97,10.0,NE,5.8,-,N/A,,Scattered Clouds,40,2013-07-24 20:53:00
5:53 PM,72.0,53.1,51,29.96,10.0,North,10.4,-,N/A,,Scattered Clouds,10,2013-07-24 21:53:00
6:53 PM,70.0,52.0,53,29.97,10.0,NNE,6.9,-,N/A,,Partly Cloudy,20,2013-07-24 22:53:00
7:53 PM,68.0,52.0,56,29.97,10.0,NNE,4.6,-,N/A,,Clear,30,2013-07-24 23:53:00
8:53 PM,64.0,53.1,67,30.00,10.0,Calm,Calm,-,N/A,,Clear,0,2013-07-25 00:53:00
9:53 PM,60.1,54.0,80,30.01,10.0,Calm,Calm,-,N/A,,Clear,0,2013-07-25 01:53:00
10:53 PM,57.9,54.0,87,30.02,9.0,Calm,Calm,-,N/A,,Clear,0,2013-07-25 02:53:00
11:53 PM,57.9,51.1,78,30.03,10.0,Calm,Calm,-,N/A,,Clear,0,2013-07-25 03:53:00